Starlink 11414

operational
NORAD ID: 61948 Int'l Des: 2024-209 Owner: SPXS Country: US Constellation: starlink
LEOCIRCULAR

关于 Starlink 11414

正在加载描述...

实时位置

正在加载3D地球...

即将过境

高度历史

Altitude vs Time

uPlot chart will show altitude changes over time

两行轨道根数

1 61948U 24209K 26095.13442200 .00190873 00000-0 15390-2 0 9991
2 61948 53.1573 240.7270 0001263 78.3186 281.7974 15.69793544 80875
Epoch: Apr 5, 2026 • Age: 10 hours

当前状态

高度 360.8 km
速度 7.70 km/s
星下点 32.88°N, 1.44°E
发射日期 Nov 14, 2024
运行时间 1.3 years
类型 internet

技术详情

分类 Payload
质量 960.00 kg
干质量 910.00 kg
总质量 960.00 kg
长度 0.30 m
直径 4.10 m
跨度 29.00 m
形状 Box + pan
制造商 SPXS
平台类型 Starlink V2MD
阶段状态 In Orbit
所有者/国家 SPXS/US

大型星座

Loading constellations...